www.srh.weather.gov   
NOAA logo - Click to go to the NOAA homepage   NWS logo
Hourly Weather Roundup
Enter Your "City, ST" or zip code   
Current Version              Previous Version:    01  02  03  04  05  06  07  08  09  10  11  12  13  14  15  16  17  18  19  20  21  22  23  24  25  26  27  28  29  30  
   31  32  33  34  35  36  37  38  39  40  41  42  43  44  45  46  47  48  49  50  51  52  53  54  55  56  57  58  59  60  
[Printable]
328
NZUS43 KILX 311110
HWRILX

AREA WEATHER ROUNDUP
NATIONAL WEATHER SERVICE, LINCOLN IL
600 AM CDT FRI OCT 31 2014


CITY           SKY/WX    TMP DP  RH WIND       PRES   REMARKS
BLOOMINGTON    CLOUDY    42  36  79 NW15      30.10R WCI  34
CHAMPAIGN      CLOUDY    45  41  86 NW15      30.06R
DECATUR        CLOUDY    46  41  82 NW14      30.09R
FLORA          PTCLDY    44  44  97 NW5       30.07S
GALESBURG      CLOUDY    37  26  62 NW18G30   30.20R WCI  27
JACKSONVILLE   CLOUDY    46  35  64 NW22G30   30.16R
LACON          CLOUDY    39  24  54 N20G33    30.15R WCI  29
LAWRENCEVILLE  CLOUDY    46  44  93 NW7       30.05R
LITCHFIELD     CLOUDY    45  40  83 NW18      30.12R
$$


CITY           SKY/WX    TMP DP  RH WIND       PRES   REMARKS
LINCOLN        CLOUDY    45  38  77 N10G20    30.12R
MACOMB         CLOUDY    41  26  54 N21G31    30.22R WCI  32
MATTOON        CLOUDY    44  41  89 NW9       30.05R
MT CARMEL AP   CLOUDY    46  46 100 NW5       30.05R
OLNEY-NOBLE AP CLOUDY    43  41  93 CALM      30.06S
PARIS          CLOUDY    44  42  95 W3        30.05R
PEORIA         MOCLDY    41  26  55 NW12G21   30.15R WCI  34
PONTIAC        CLOUDY    44  34  68 NW15G22   30.09R
RANTOUL        CLOUDY    44  38  81 N14G24    30.06R
ROBINSON       CLOUDY    46  44  93 NW3       30.05F
SPRINGFIELD    CLOUDY    47  35  63 NW25G37   30.14R
TAYLORVILLE    CLOUDY    45  41  87 NW15G22   30.11R
$$

...REGIONAL REPORTS...


CITY           SKY/WX    TMP DP  RH WIND       PRES   REMARKS
CHICAGO O`HARE CLOUDY    39  28  64 NW25G31   30.06R WCI  28
KANKAKEE       CLOUDY    42  34  73 NW12      30.06R
MOLINE         PTCLDY    37  22  54 NW20G29   30.23R WCI  27
MOUNT VERNON   MOCLDY    46  41  81 N5        30.08R
PITTSFIELD     CLOUDY    45  33  62 N18       30.20R
QUINCY         CLOUDY    44  29  55 N22G28    30.21R
ROCKFORD       CLOUDY    37  23  56 N23G31    30.16R WCI  26
$$


CITY           SKY/WX    TMP DP  RH WIND       PRES   REMARKS
BURLINGTON     PTCLDY    36  20  52 N24       30.25R WCI  24
CEDAR RAPIDS   CLEAR     30  18  60 N17G28    30.32R WCI  18
DES MOINES     PTCLDY    32  16  51 N18G26    30.43R WCI  20
KIRKSVILLE     PTCLDY    37  25  61 N16G28    30.32R WCI  28
OTTUMWA        CLEAR     31  14  49 N22G32    30.35R WCI  18
ST LOUIS       CLOUDY    49  42  77 NW12      30.15R
$$


CITY           SKY/WX    TMP DP  RH WIND       PRES   REMARKS
TERRE HAUTE    CLOUDY    44  42  93 NW3       30.03S
EVANSVILLE     CLOUDY    48  44  86 N3        30.04R
INDIANAPOLIS   CLOUDY    44  38  79 W6        29.98F
LAFAYETTE      CLOUDY    44  39  82 NW13      30.00S
MADISON        MOCLDY    33  28  81 N18G30    30.18R WCI  22
MILWAUKEE      LGT SNOW  33  30  88 NW13      30.08R WCI  24
$$





National Weather Service
Disclaimer
Last Modified: August 31, 2005
Privacy Policy